• In Hungary
  • List of Countries
  • For 7 days
  • Water Temperature
  • Satellite Maps
  • Weather Map
  • News
  • Weather Widgets
  • user-avatar
    Login

    Hourly Weather Matveevka

    Today, 18 June, Monday

    Time Temperature Precipitation Wind Pressure Humidity
    00:00 +15°C° 0 mm 1 mps 751 mmHg 71%
    01:00 +15°C° 0 mm 1 mps 751 mmHg 73%
    02:00 +14°C° 0 mm 1 mps 751 mmHg 76%
    03:00 +14°C° 0 mm 1 mps 751 mmHg 78%
    04:00 +15°C° 0 mm 1 mps 751 mmHg 78%
    05:00 +16°C° 0 mm 1 mps 751 mmHg 78%
    06:00 +18°C° 0 mm 1 mps 751 mmHg 78%
    07:00 +19°C° 0 mm 1 mps 751 mmHg 73%
    08:00 +21°C° 0 mm 1 mps 751 mmHg 68%
    09:00 +23°C° 0 mm 1 mps 751 mmHg 63%
    10:00 +24°C° 0 mm 1 mps 751 mmHg 59%
    11:00 +25°C° 0 mm 1 mps 751 mmHg 55%
    12:00 +26°C° 0 mm 1 mps 750 mmHg 51%
    13:00 +27°C° 0 mm 1 mps 750 mmHg 51%
    14:00 +27°C° 0 mm 1 mps 750 mmHg 51%
    15:00 +27°C° 0 mm 1 mps 750 mmHg 51%
    16:00 +27°C° 0 mm 1 mps 750 mmHg 54%
    17:00 +27°C° 0 mm 1 mps 750 mmHg 58%
    18:00 +26°C° 0 mm 1 mps 749 mmHg 61%
    19:00 +24°C° 0 mm 1 mps 749 mmHg 65%
    20:00 +22°C° 0 mm 1 mps 749 mmHg 69%
    21:00 +20°C° 0 mm 1 mps 749 mmHg 73%
    22:00 +20°C° 0 mm 1 mps 749 mmHg 75%
    23:00 +19°C° 0 mm 1 mps 749 mmHg 76%

    Tomorrow, 19 June, Tuesday

    Time Temperature Precipitation Wind Pressure Humidity
    00:00 +18°C° 0 mm 1 mps 749 mmHg 78%
    01:00 +18°C° 0.1 mm 1 mps 749 mmHg 79%
    02:00 +18°C° 0.1 mm 1 mps 749 mmHg 80%
    03:00 +16°C° 0.1 mm 2 mps 749 mmHg 82%
    04:00 +17°C° 0 mm 2 mps 749 mmHg 81%
    05:00 +17°C° 0 mm 2 mps 749 mmHg 81%
    06:00 +18°C° 0 mm 2 mps 749 mmHg 81%
    07:00 +20°C° 0 mm 2 mps 749 mmHg 77%
    08:00 +21°C° 0 mm 2 mps 749 mmHg 72%
    09:00 +24°C° 0 mm 2 mps 749 mmHg 67%
    10:00 +25°C° 0 mm 3 mps 749 mmHg 64%
    11:00 +26°C° 0 mm 4 mps 749 mmHg 62%
    12:00 +26°C° 0 mm 4 mps 749 mmHg 59%
    13:00 +26°C° 0.1 mm 4 mps 748 mmHg 61%
    14:00 +26°C° 0.1 mm 5 mps 748 mmHg 62%
    15:00 +26°C° 0.1 mm 5 mps 748 mmHg 64%
    16:00 +26°C° 0.1 mm 5 mps 748 mmHg 67%
    17:00 +25°C° 0.1 mm 4 mps 747 mmHg 71%
    18:00 +25°C° 0.1 mm 4 mps 747 mmHg 74%
    19:00 +23°C° 0.1 mm 4 mps 747 mmHg 80%
    20:00 +21°C° 0.1 mm 3 mps 747 mmHg 85%
    21:00 +20°C° 0.1 mm 3 mps 747 mmHg 90%
    22:00 +19°C° 0 mm 3 mps 747 mmHg 92%
    23:00 +19°C° 0 mm 3 mps 747 mmHg 93%

    Day after tomorrow, 20 June, Wednesday

    Time Temperature Precipitation Wind Pressure Humidity
    00:00 +18°C° 0 mm 4 mps 746 mmHg 95%
    01:00 +18°C° 0 mm 4 mps 746 mmHg 95%
    02:00 +18°C° 0 mm 4 mps 746 mmHg 96%
    03:00 +18°C° 0 mm 4 mps 746 mmHg 96%
    04:00 +18°C° 0 mm 4 mps 746 mmHg 94%
    05:00 +18°C° 0 mm 4 mps 746 mmHg 92%
    06:00 +17°C° 0 mm 5 mps 746 mmHg 90%
    07:00 +19°C° 0 mm 5 mps 747 mmHg 84%
    08:00 +20°C° 0 mm 5 mps 747 mmHg 78%
    09:00 +21°C° 0 mm 5 mps 747 mmHg 71%
    10:00 +22°C° 0.1 mm 6 mps 747 mmHg 69%
    11:00 +23°C° 0.1 mm 6 mps 747 mmHg 66%
    12:00 +23°C° 0.1 mm 6 mps 747 mmHg 63%
    13:00 +23°C° 0 mm 6 mps 747 mmHg 61%
    14:00 +24°C° 0 mm 6 mps 747 mmHg 60%
    15:00 +24°C° 0 mm 6 mps 747 mmHg 58%
    16:00 +25°C° 0 mm 5 mps 748 mmHg 61%
    17:00 +23°C° 0 mm 4 mps 748 mmHg 63%
    18:00 +23°C° 0 mm 4 mps 748 mmHg 66%
    19:00 +21°C° 0 mm 3 mps 748 mmHg 70%
    20:00 +20°C° 0 mm 3 mps 748 mmHg 73%
    21:00 +18°C° 0 mm 2 mps 748 mmHg 77%
    22:00 +17°C° 0 mm 2 mps 749 mmHg 77%
    23:00 +16°C° 0 mm 2 mps 749 mmHg 78%

    21 June, Thursday

    Time Temperature Precipitation Wind Pressure Humidity
    00:00 +15°C° 0 mm 2 mps 749 mmHg 78%
    01:00 +15°C° 0 mm 2 mps 749 mmHg 77%
    02:00 +14°C° 0 mm 2 mps 749 mmHg 77%
    03:00 +14°C° 0 mm 2 mps 749 mmHg 76%
    04:00 +14°C° 0 mm 3 mps 749 mmHg 78%
    05:00 +14°C° 0 mm 3 mps 749 mmHg 79%
    06:00 +16°C° 0 mm 3 mps 750 mmHg 81%
    07:00 +18°C° 0 mm 3 mps 750 mmHg 76%
    08:00 +19°C° 0 mm 3 mps 750 mmHg 71%
    09:00 +21°C° 0 mm 3 mps 750 mmHg 66%
    10:00 +22°C° 0 mm 4 mps 750 mmHg 63%
    11:00 +23°C° 0 mm 4 mps 750 mmHg 59%
    12:00 +25°C° 0 mm 4 mps 750 mmHg 55%
    13:00 +25°C° 0 mm 4 mps 749 mmHg 56%
    14:00 +26°C° 0 mm 4 mps 749 mmHg 56%
    15:00 +26°C° 0 mm 4 mps 749 mmHg 57%
    16:00 +26°C° 0 mm 4 mps 749 mmHg 60%
    17:00 +26°C° 0 mm 3 mps 749 mmHg 63%
    18:00 +26°C° 0 mm 3 mps 749 mmHg 66%
    19:00 +24°C° 0 mm 2 mps 749 mmHg 71%
    20:00 +21°C° 0 mm 2 mps 749 mmHg 76%
    21:00 +19°C° 0 mm 2 mps 749 mmHg 81%
    22:00 +19°C° 0 mm 2 mps 749 mmHg 83%
    23:00 +18°C° 0 mm 2 mps 749 mmHg 86%

    22 June, Friday

    Time Temperature Precipitation Wind Pressure Humidity
    00:00 +17°C° 0 mm 2 mps 750 mmHg 88%
    01:00 +17°C° 0 mm 2 mps 750 mmHg 88%
    02:00 +16°C° 0 mm 2 mps 750 mmHg 89%
    03:00 +16°C° 0 mm 2 mps 750 mmHg 90%
    04:00 +17°C° 0 mm 2 mps 750 mmHg 88%
    05:00 +17°C° 0 mm 2 mps 750 mmHg 86%
    06:00 +18°C° 0 mm 2 mps 750 mmHg 85%
    07:00 +20°C° 0 mm 2 mps 749 mmHg 80%
    08:00 +22°C° 0 mm 3 mps 749 mmHg 74%
    09:00 +24°C° 0 mm 3 mps 749 mmHg 69%
    10:00 +25°C° 0 mm 4 mps 749 mmHg 66%
    11:00 +26°C° 0 mm 4 mps 749 mmHg 63%
    12:00 +27°C° 0 mm 5 mps 749 mmHg 60%
    13:00 +28°C° 0 mm 5 mps 748 mmHg 60%
    14:00 +28°C° 0 mm 5 mps 748 mmHg 60%
    15:00 +28°C° 0 mm 5 mps 747 mmHg 59%
    16:00 +28°C° 0 mm 4 mps 747 mmHg 63%
    17:00 +28°C° 0 mm 4 mps 747 mmHg 66%
    18:00 +27°C° 0 mm 4 mps 747 mmHg 69%
    19:00 +26°C° 0 mm 4 mps 747 mmHg 74%
    20:00 +24°C° 0 mm 3 mps 747 mmHg 79%
    21:00 +22°C° 0 mm 3 mps 747 mmHg 85%
    22:00 +21°C° 0 mm 4 mps 747 mmHg 86%
    23:00 +21°C° 0 mm 4 mps 747 mmHg 87%

    23 June, Saturday

    Time Temperature Precipitation Wind Pressure Humidity
    00:00 +20°C° 0 mm 4 mps 747 mmHg 88%
    01:00 +20°C° 0 mm 4 mps 746 mmHg 89%
    02:00 +20°C° 0 mm 4 mps 746 mmHg 90%
    03:00 +19°C° 0 mm 4 mps 746 mmHg 90%
    04:00 +20°C° 0 mm 4 mps 746 mmHg 87%
    05:00 +20°C° 0 mm 4 mps 746 mmHg 84%
    06:00 +21°C° 0 mm 5 mps 746 mmHg 81%
    07:00 +22°C° 0 mm 5 mps 746 mmHg 77%
    08:00 +25°C° 0 mm 5 mps 745 mmHg 72%
    09:00 +26°C° 0 mm 5 mps 745 mmHg 67%
    10:00 +27°C° 0 mm 5 mps 745 mmHg 64%
    11:00 +28°C° 0 mm 6 mps 744 mmHg 62%
    12:00 +29°C° 0 mm 6 mps 744 mmHg 60%
    13:00 +29°C° 0 mm 6 mps 744 mmHg 60%
    14:00 +29°C° 0 mm 7 mps 744 mmHg 61%
    15:00 +30°C° 0 mm 7 mps 743 mmHg 61%
    16:00 +29°C° 0.4 mm 6 mps 743 mmHg 66%
    17:00 +28°C° 0.4 mm 5 mps 743 mmHg 71%
    18:00 +27°C° 0.4 mm 4 mps 744 mmHg 76%
    19:00 +25°C° 0.2 mm 4 mps 744 mmHg 79%
    20:00 +24°C° 0.2 mm 3 mps 744 mmHg 82%
    21:00 +21°C° 0.2 mm 3 mps 744 mmHg 85%
    22:00 +21°C° 0.5 mm 3 mps 743 mmHg 86%
    23:00 +21°C° 0.5 mm 3 mps 743 mmHg 88%
    Show more